Location: Moy Burn
(57.3833°N, 4.0667°W)
Time: 08:37:11
(UTC+00:00)

MOS 1-B Rocket - Pass Details

Date: 08 August 2020
Orbit: 890 x 1606 km, 99.1° (Epoch: 18 September)

Event Time Altitude Azimuth Distance (km) Brightness Sun altitude
Rises 22:33:18 0° 18° (NNE) 3,684 7.7 -13.4°
Reaches altitude 10° 22:35:56 10° 24° (NNE) 2,671 6.9 -13.6°
Maximum altitude 22:41:34 48° 99° (E) 1,163 4.2 -13.9°
Enters shadow 22:45:15 20° 166° (SSE) 1,943 5.0 -14.1°
